Powrót do katalogu

STARLINK-35145

AktywnyŁącznośćVLEO
NORAD 65685·PAYLOAD·🇺🇸 United States

Wystrzelony Sep 21, 2025 z Cape Canaveral Space Force Station

Loading…

Następne Przeloty (najbliższe 24 godziny)

TLE

ŚwieżeSource: CelesTrak SupGP

Epoka: Sep 14, 2026, 20:53 UTC

1 65685C 25212K   26257.87062500  .00007471  00000+0  22064-3 0  2574
2 65685  53.1580 183.7684 0001335 102.0090 230.3709 15.34397537    17

Śledź STARLINK-35145 w czasie rzeczywistym z AllMySat

Download on the App Store